Location: Asheville, NC
(35.6000°N, 82.5500°W)
Time: 01:34:51
(UTC-04:00)

SRMSAT - Pass Details

Date: 08 January 2018
Orbit: 848 x 866 km, 20.0° (Epoch: 20 July)

Event Time Altitude Azimuth Distance (km) Brightness Sun altitude
Rises 20:23:19 0° 235° (SW) 3,416 ? -33.8°
Reaches altitude 10° 20:26:49 10° 215° (SW) 2,476 ? -34.5°
Enters shadow 20:28:53 15° 195° (SSW) 2,127 ? -34.9°
